Port Huron, MI

10:34 PM EDT on June 23, 2017 (GMT -0400)
Saint Clair County International

Weather History for KPHN - December, 2013

Change the Weather History Date:

Tuesday, December 24, 2013

  Actual Average (KMTC) Record (KMTC)
Temperature  
Mean Temperature 14 °F -  
Max Temperature 21 °F 31 °F 57 °F (2015)
Min Temperature 6 °F 18 °F 0 °F (1983)
Degree Days  
Heating Degree Days 52    
Moisture  
Dew Point 8 °F    
Average Humidity 78    
Maximum Humidity 86    
Minimum Humidity 62    
Precipitation  
Precipitation 0.00 in - - ()
Sea Level Pressure  
Sea Level Pressure 30.37 in    
Wind  
Wind Speed 5 mph (WNW)    
Max Wind Speed 15 mph    
Max Gust Speed 23 mph    
Visibility 8 miles    
Events Snow    
Averages and records for this station are not official NWS values.
T = Trace of Precipitation, MM = Missing Value Source: NWS Daily Summary

Daily Weather History Graph

Daily Weather History Graph

Search for Another Location

Airport or City:

Trip Planner

Search our weather history database for the weather conditions in past years. The results will help you decide how hot, cold, wet, or windy it might be!

Date:

Astronomy

Dec. 24, 2013 Rise Set
Actual Time 7:59 AM EST 5:00 PM EST
Civil Twilight 7:26 AM EST 5:32 PM EST
Nautical Twilight 6:51 AM EST 6:08 PM EST
Astronomical Twilight 6:16 AM EST 6:43 PM EST
Moon No Moon Rise 11:43 AM EST
Length of Visible Light 10h 05m
Length of Day
9h 01m
Waning Gibbous, 59% of the Moon is Illuminated
Dec 24
Waning Gibbous
Dec 25
Last Quarter
Jan 1
New
Jan 7
First Quarter
Jan 15
Full

Hourly Weather History & Observations

Time (EST) Temp. Windchill Dew Point Humidity Pressure Visibility Wind Dir Wind Speed Gust Speed Precip Events Conditions
12:17 AM 21.2 °F - 17.6 °F 86% 30.26 in 10.0 mi Calm Calm - N/A Snow Light Snow
12:37 AM 21.2 °F - 17.6 °F 86% 30.25 in 5.0 mi Calm Calm - N/A Snow Light Snow
12:57 AM 21.2 °F - 17.6 °F 86% 30.25 in 4.0 mi Calm Calm - N/A Snow Light Snow
1:17 AM 21.2 °F - 17.6 °F 86% 30.25 in 2.0 mi Calm Calm - N/A Snow Light Snow
1:37 AM 21.2 °F - 17.6 °F 86% 30.25 in 3.0 mi Calm Calm - N/A Snow Light Snow
1:57 AM 21.2 °F - 17.6 °F 86% 30.25 in 3.0 mi Calm Calm - N/A Snow Light Snow
2:17 AM 21.2 °F 13.6 °F 17.6 °F 86% 30.25 in 2.5 mi West 5.8 mph - N/A Snow Light Snow
2:37 AM 21.2 °F 12.6 °F 15.8 °F 80% 30.26 in 3.0 mi West 6.9 mph - N/A Snow Light Snow
2:57 AM 19.4 °F 11.5 °F 15.8 °F 86% 30.26 in 3.0 mi WNW 5.8 mph - N/A Snow Light Snow
3:17 AM 19.4 °F 12.8 °F 15.8 °F 86% 30.27 in 3.0 mi West 4.6 mph - N/A Snow Light Snow
3:37 AM 19.4 °F 11.5 °F 15.8 °F 86% 30.27 in 3.0 mi WNW 5.8 mph - N/A Snow Light Snow
3:57 AM 19.4 °F 12.8 °F 15.8 °F 86% 30.27 in 3.0 mi NW 4.6 mph - N/A Snow Light Snow
4:17 AM 17.6 °F 8.2 °F 14.0 °F 86% 30.27 in 2.5 mi NW 6.9 mph - N/A Snow Light Snow
4:37 AM 17.6 °F 9.3 °F 14.0 °F 86% 30.27 in 3.0 mi NW 5.8 mph - N/A Snow Light Snow
4:57 AM 17.6 °F 12.3 °F 14.0 °F 86% 30.27 in 7.0 mi WNW 3.5 mph - N/A Snow Light Snow
5:17 AM 17.6 °F 10.7 °F 14.0 °F 86% 30.28 in 10.0 mi WNW 4.6 mph - N/A Snow Light Snow
5:37 AM 17.6 °F 7.3 °F 14.0 °F 86% 30.28 in 5.0 mi NW 8.1 mph - N/A Snow Light Snow
5:57 AM 15.8 °F 5.1 °F 12.2 °F 86% 30.29 in 2.5 mi NW 8.1 mph - N/A Snow Light Snow
6:17 AM 15.8 °F 4.2 °F 12.2 °F 86% 30.29 in 2.5 mi NW 9.2 mph - N/A Snow Light Snow
6:37 AM 14.0 °F 2.9 °F 10.4 °F 86% 30.31 in 3.0 mi NW 8.1 mph - N/A Snow Light Snow
6:57 AM 14.0 °F 2.0 °F 10.4 °F 86% 30.31 in 4.0 mi WNW 9.2 mph - N/A Snow Light Snow
7:17 AM 12.2 °F 2.9 °F 8.6 °F 85% 30.32 in 7.0 mi WNW 5.8 mph - N/A Snow Light Snow
7:37 AM 10.4 °F -0.4 °F 6.8 °F 85% 30.32 in 7.0 mi WNW 6.9 mph - N/A Snow Light Snow
7:57 AM 10.4 °F 0.8 °F 6.8 °F 85% 30.33 in 10.0 mi WNW 5.8 mph - N/A Snow Light Snow
8:17 AM 8.6 °F -1.3 °F 5.0 °F 85% 30.34 in 10.0 mi WNW 5.8 mph 16.1 mph N/A   Scattered Clouds
8:37 AM 8.6 °F -2.6 °F 5.0 °F 85% 30.35 in 7.0 mi WNW 6.9 mph - N/A Snow Light Snow
8:57 AM 8.6 °F 0.1 °F 5.0 °F 85% 30.36 in 10.0 mi West 4.6 mph - N/A   Scattered Clouds
9:17 AM 8.6 °F -5.5 °F 3.2 °F 79% 30.36 in 10.0 mi West 10.4 mph - N/A   Clear
9:37 AM 10.4 °F -2.4 °F 3.2 °F 73% 30.37 in 10.0 mi West 9.2 mph 17.3 mph N/A   Scattered Clouds
9:57 AM 8.6 °F -4.7 °F 3.2 °F 79% 30.37 in 10.0 mi WNW 9.2 mph - N/A   Scattered Clouds
10:17 AM 10.4 °F -1.5 °F 3.2 °F 73% 30.37 in 10.0 mi West 8.1 mph - N/A   Clear
10:37 AM 10.4 °F -4.1 °F 5.0 °F 79% 30.38 in 10.0 mi West 11.5 mph - N/A   Clear
10:57 AM 12.2 °F 0.7 °F 5.0 °F 73% 30.38 in 10.0 mi West 8.1 mph - N/A   Clear
11:17 AM 12.2 °F 0.7 °F 5.0 °F 73% 30.39 in 10.0 mi WNW 8.1 mph - N/A   Clear
11:37 AM 12.2 °F -1.8 °F 5.0 °F 73% 30.39 in 10.0 mi WNW 11.5 mph 19.6 mph N/A   Clear
11:57 AM 14.0 °F -0.2 °F 5.0 °F 67% 30.38 in 10.0 mi West 12.7 mph 18.4 mph N/A   Clear
12:17 PM 14.0 °F -0.2 °F 5.0 °F 67% 30.38 in 10.0 mi WNW 12.7 mph 19.6 mph N/A   Clear
12:37 PM 14.0 °F -0.2 °F 5.0 °F 67% 30.38 in 10.0 mi West 12.7 mph 16.1 mph N/A   Clear
12:57 PM 14.0 °F -0.8 °F 5.0 °F 67% 30.39 in 10.0 mi WNW 13.8 mph 18.4 mph N/A   Clear
1:17 PM 14.0 °F -0.2 °F 5.0 °F 67% 30.39 in 10.0 mi WNW 12.7 mph 18.4 mph N/A   Clear
1:37 PM 15.8 °F 5.1 °F 5.0 °F 62% 30.40 in 10.0 mi West 8.1 mph 17.3 mph N/A   Clear
1:57 PM 15.8 °F 2.7 °F 5.0 °F 62% 30.40 in 10.0 mi WNW 11.5 mph 18.4 mph N/A   Clear
2:17 PM 15.8 °F 3.4 °F 5.0 °F 62% 30.41 in 10.0 mi WNW 10.4 mph - N/A   Clear
2:37 PM 14.0 °F -1.4 °F 3.2 °F 62% 30.42 in 10.0 mi NW 15.0 mph 23.0 mph N/A   Clear
2:57 PM 14.0 °F 2.0 °F 5.0 °F 67% 30.42 in 10.0 mi NW 9.2 mph 16.1 mph N/A   Clear
3:17 PM 14.0 °F -0.2 °F 3.2 °F 62% 30.43 in 10.0 mi NW 12.7 mph 19.6 mph N/A   Clear
3:37 PM 14.0 °F -0.8 °F 3.2 °F 62% 30.45 in 10.0 mi WNW 13.8 mph 18.4 mph N/A   Clear
3:57 PM 14.0 °F 2.0 °F 3.2 °F 62% 30.46 in 10.0 mi NW 9.2 mph - N/A   Clear
4:17 PM 12.2 °F -0.2 °F 3.2 °F 67% 30.47 in 10.0 mi WNW 9.2 mph 16.1 mph N/A   Clear
4:37 PM 12.2 °F 2.9 °F 3.2 °F 67% 30.47 in 10.0 mi NW 5.8 mph - N/A   Clear
4:57 PM 10.4 °F -0.4 °F 3.2 °F 73% 30.47 in 10.0 mi NW 6.9 mph - N/A   Clear
5:17 PM 10.4 °F 0.8 °F 3.2 °F 73% 30.48 in 10.0 mi West 5.8 mph - N/A   Clear
5:37 PM 10.4 °F 0.8 °F 3.2 °F 73% 30.49 in 10.0 mi WNW 5.8 mph - N/A   Clear
5:57 PM 10.4 °F 2.2 °F 3.2 °F 73% 30.49 in 10.0 mi WNW 4.6 mph - N/A   Clear
6:17 PM 8.6 °F 2.0 °F 3.2 °F 79% 30.50 in 10.0 mi West 3.5 mph - N/A   Clear
6:37 PM 8.6 °F - 3.2 °F 79% 30.51 in 10.0 mi Calm Calm - N/A   Clear
6:57 PM 8.6 °F 2.0 °F 3.2 °F 79% 30.51 in 10.0 mi West 3.5 mph - N/A   Clear
7:17 PM 8.6 °F 2.0 °F 3.2 °F 79% 30.52 in 10.0 mi West 3.5 mph - N/A   Clear
7:37 PM 6.8 °F -0.1 °F 3.2 °F 85% 30.52 in 10.0 mi WNW 3.5 mph - N/A   Clear
7:52 PM 6.8 °F - 3.2 °F 85% 30.52 in 10.0 mi Calm Calm - N/A   Clear